• In Hungary
  • List of Countries
  • For 7 days
  • Water Temperature
  • Satellite Maps
  • Weather Map
  • News
  • Weather Widgets
  • user-avatar
    Login

    Hourly Weather Verhojansk

    Today, 20 September, Thursday

    Time Temperature Precipitation Wind Pressure Humidity
    00:00 +2°C° 0 mm 1 mps 726 mmHg 82%
    01:00 +1°C° 0 mm 1 mps 726 mmHg 84%
    02:00 +1°C° 0 mm 1 mps 726 mmHg 85%
    03:00 +1°C° 0 mm 1 mps 726 mmHg 86%
    04:00 +1°C° 0 mm 1 mps 726 mmHg 87%
    05:00 0°C° 0 mm 1 mps 726 mmHg 87%
    06:00 0°C° 0 mm 1 mps 726 mmHg 88%
    07:00 +1°C° 0 mm 1 mps 726 mmHg 84%
    08:00 +2°C° 0 mm 1 mps 726 mmHg 79%
    09:00 +2°C° 0 mm 0 mps 726 mmHg 73%
    10:00 +2°C° 0 mm 0 mps 725 mmHg 70%
    11:00 +3°C° 0 mm 0 mps 725 mmHg 67%
    12:00 +4°C° 0 mm 1 mps 725 mmHg 64%
    13:00 +5°C° 0 mm 1 mps 725 mmHg 63%
    14:00 +5°C° 0 mm 1 mps 725 mmHg 62%
    15:00 +5°C° 0 mm 1 mps 725 mmHg 61%
    16:00 +5°C° 0 mm 1 mps 725 mmHg 64%
    17:00 +3°C° 0 mm 0 mps 726 mmHg 67%
    18:00 +3°C° 0 mm 0 mps 726 mmHg 70%
    19:00 +2°C° 0 mm 0 mps 726 mmHg 72%
    20:00 +2°C° 0 mm 0 mps 726 mmHg 73%
    21:00 +1°C° 0 mm 0 mps 726 mmHg 74%
    22:00 +1°C° 0 mm 0 mps 726 mmHg 75%
    23:00 +1°C° 0 mm 0 mps 726 mmHg 76%

    Tomorrow, 21 September, Friday

    Time Temperature Precipitation Wind Pressure Humidity
    00:00 +1°C° 0 mm 0 mps 726 mmHg 77%
    01:00 0°C° 0 mm 0 mps 726 mmHg 78%
    02:00 0°C° 0 mm 0 mps 726 mmHg 79%
    03:00 0°C° 0 mm 0 mps 726 mmHg 79%
    04:00 -1°C° 0 mm 0 mps 726 mmHg 81%
    05:00 -1°C° 0 mm 0 mps 726 mmHg 82%
    06:00 -1°C° 0 mm 0 mps 726 mmHg 84%
    07:00 0°C° 0 mm 0 mps 727 mmHg 77%
    08:00 +2°C° 0 mm 1 mps 727 mmHg 71%
    09:00 +3°C° 0 mm 1 mps 727 mmHg 65%
    10:00 +4°C° 0 mm 1 mps 727 mmHg 61%
    11:00 +5°C° 0 mm 1 mps 727 mmHg 57%
    12:00 +4°C° 0 mm 2 mps 727 mmHg 54%
    13:00 +5°C° 0 mm 2 mps 727 mmHg 53%
    14:00 +5°C° 0 mm 2 mps 728 mmHg 52%
    15:00 +5°C° 0 mm 2 mps 728 mmHg 52%
    16:00 +4°C° 0 mm 2 mps 728 mmHg 58%
    17:00 +3°C° 0 mm 1 mps 728 mmHg 64%
    18:00 +2°C° 0 mm 1 mps 728 mmHg 70%
    19:00 +1°C° 0 mm 1 mps 728 mmHg 74%
    20:00 +1°C° 0 mm 1 mps 728 mmHg 78%
    21:00 -1°C° 0 mm 0 mps 728 mmHg 81%
    22:00 -1°C° 0 mm 0 mps 728 mmHg 82%
    23:00 -1°C° 0 mm 0 mps 728 mmHg 83%

    Day after tomorrow, 22 September, Saturday

    Time Temperature Precipitation Wind Pressure Humidity
    00:00 -2°C° 0 mm 0 mps 728 mmHg 84%
    01:00 -2°C° 0 mm 0 mps 728 mmHg 84%
    02:00 -1°C° 0 mm 1 mps 728 mmHg 84%
    03:00 -1°C° 0 mm 1 mps 728 mmHg 84%
    04:00 -1°C° 0 mm 1 mps 727 mmHg 82%
    05:00 0°C° 0 mm 1 mps 727 mmHg 81%
    06:00 -2°C° 0 mm 2 mps 727 mmHg 79%
    07:00 -1°C° 0 mm 2 mps 726 mmHg 74%
    08:00 0°C° 0 mm 3 mps 726 mmHg 68%
    09:00 0°C° 0 mm 4 mps 726 mmHg 63%
    10:00 0°C° 0.1 mm 4 mps 725 mmHg 62%
    11:00 +1°C° 0.1 mm 5 mps 724 mmHg 61%
    12:00 +1°C° 0.1 mm 5 mps 723 mmHg 60%
    13:00 +2°C° 0.1 mm 6 mps 723 mmHg 61%
    14:00 +3°C° 0.1 mm 6 mps 722 mmHg 62%
    15:00 +3°C° 0.1 mm 6 mps 722 mmHg 63%
    16:00 +3°C° 0.2 mm 6 mps 721 mmHg 67%
    17:00 +2°C° 0.2 mm 5 mps 721 mmHg 72%
    18:00 +2°C° 0.2 mm 5 mps 720 mmHg 76%
    19:00 +1°C° 0.3 mm 5 mps 720 mmHg 77%
    20:00 +1°C° 0.3 mm 4 mps 719 mmHg 79%
    21:00 +1°C° 0.3 mm 4 mps 719 mmHg 80%
    22:00 +1°C° 0.2 mm 4 mps 719 mmHg 81%
    23:00 +1°C° 0.2 mm 3 mps 719 mmHg 82%

    23 September, Sunday

    Time Temperature Precipitation Wind Pressure Humidity
    00:00 +1°C° 0.2 mm 3 mps 719 mmHg 84%
    01:00 +1°C° 0.4 mm 3 mps 719 mmHg 84%
    02:00 +1°C° 0.4 mm 3 mps 719 mmHg 84%
    03:00 +1°C° 0.4 mm 3 mps 720 mmHg 85%
    04:00 +1°C° 0.2 mm 3 mps 720 mmHg 85%
    05:00 0°C° 0.2 mm 3 mps 720 mmHg 86%
    06:00 0°C° 0.2 mm 3 mps 721 mmHg 86%
    07:00 +1°C° 0 mm 3 mps 721 mmHg 82%
    08:00 +1°C° 0 mm 3 mps 722 mmHg 77%
    09:00 +2°C° 0 mm 3 mps 722 mmHg 73%
    10:00 +3°C° 0 mm 3 mps 723 mmHg 70%
    11:00 +3°C° 0 mm 3 mps 723 mmHg 67%
    12:00 +4°C° 0 mm 3 mps 723 mmHg 64%
    13:00 +4°C° 0.1 mm 3 mps 723 mmHg 65%
    14:00 +4°C° 0.1 mm 3 mps 723 mmHg 67%
    15:00 +4°C° 0.1 mm 3 mps 723 mmHg 68%
    16:00 +4°C° 0.1 mm 2 mps 724 mmHg 73%
    17:00 +3°C° 0.1 mm 2 mps 724 mmHg 77%
    18:00 +2°C° 0.1 mm 2 mps 724 mmHg 82%
    19:00 +1°C° 0 mm 2 mps 724 mmHg 84%
    20:00 -1°C° 0 mm 2 mps 725 mmHg 86%
    21:00 -2°C° 0 mm 2 mps 725 mmHg 88%
    22:00 -2°C° 0 mm 2 mps 725 mmHg 89%
    23:00 0°C° 0 mm 1 mps 725 mmHg 90%

    24 September, Monday

    Time Temperature Precipitation Wind Pressure Humidity
    00:00 -1°C° 0 mm 1 mps 726 mmHg 90%
    01:00 -1°C° 0 mm 1 mps 726 mmHg 90%
    02:00 -1°C° 0 mm 1 mps 726 mmHg 91%
    03:00 -1°C° 0 mm 1 mps 726 mmHg 91%
    04:00 -1°C° 0 mm 1 mps 726 mmHg 91%
    05:00 -3°C° 0 mm 0 mps 726 mmHg 91%
    06:00 -3°C° 0 mm 0 mps 726 mmHg 91%
    07:00 -2°C° 0 mm 0 mps 726 mmHg 86%
    08:00 +1°C° 0 mm 1 mps 726 mmHg 82%
    09:00 +2°C° 0 mm 1 mps 727 mmHg 77%
    10:00 +2°C° 0 mm 1 mps 726 mmHg 74%
    11:00 +2°C° 0 mm 2 mps 726 mmHg 70%
    12:00 +3°C° 0 mm 2 mps 726 mmHg 66%
    13:00 +3°C° 0 mm 2 mps 725 mmHg 65%
    14:00 +4°C° 0 mm 2 mps 725 mmHg 64%
    15:00 +3°C° 0 mm 3 mps 725 mmHg 63%
    16:00 +2°C° 0 mm 2 mps 725 mmHg 69%
    17:00 +1°C° 0 mm 2 mps 725 mmHg 75%
    18:00 -1°C° 0 mm 2 mps 725 mmHg 81%
    19:00 -2°C° 0 mm 2 mps 725 mmHg 82%
    20:00 -2°C° 0 mm 2 mps 725 mmHg 83%
    21:00 -2°C° 0 mm 2 mps 725 mmHg 84%
    22:00 -2°C° 0 mm 2 mps 724 mmHg 84%
    23:00 -3°C° 0 mm 2 mps 724 mmHg 84%

    25 September, Tuesday

    Time Temperature Precipitation Wind Pressure Humidity
    00:00 -3°C° 0 mm 2 mps 724 mmHg 84%
    01:00 -3°C° 0 mm 2 mps 724 mmHg 84%
    02:00 -3°C° 0 mm 2 mps 724 mmHg 83%
    03:00 -3°C° 0 mm 2 mps 723 mmHg 82%
    04:00 -1°C° 0 mm 1 mps 723 mmHg 82%
    05:00 -1°C° 0 mm 1 mps 723 mmHg 82%
    06:00 -1°C° 0 mm 1 mps 723 mmHg 81%
    07:00 0°C° 0 mm 1 mps 723 mmHg 76%
    08:00 -1°C° 0 mm 2 mps 723 mmHg 70%
    09:00 +1°C° 0 mm 2 mps 723 mmHg 65%
    10:00 +2°C° 0 mm 2 mps 723 mmHg 61%
    11:00 +3°C° 0 mm 2 mps 723 mmHg 56%
    12:00 +4°C° 0 mm 2 mps 723 mmHg 52%
    13:00 +4°C° 0 mm 2 mps 723 mmHg 52%
    14:00 +5°C° 0 mm 2 mps 723 mmHg 51%
    15:00 +5°C° 0 mm 2 mps 723 mmHg 51%
    16:00 +3°C° 0 mm 2 mps 723 mmHg 57%
    17:00 +2°C° 0 mm 2 mps 723 mmHg 64%
    18:00 +1°C° 0 mm 1 mps 723 mmHg 70%
    19:00 +1°C° 0 mm 1 mps 723 mmHg 71%
    20:00 +1°C° 0 mm 1 mps 723 mmHg 71%
    21:00 +1°C° 0 mm 1 mps 723 mmHg 71%
    22:00 +1°C° 0 mm 1 mps 723 mmHg 72%
    23:00 +1°C° 0 mm 1 mps 723 mmHg 72%
    Show more